TimeCDT,TemperatureF,Dew PointF,Humidity,Sea Level PressureIn,VisibilityMPH,Wind Direction,Wind SpeedMPH,Gust SpeedMPH,PrecipitationIn,Events,Conditions,WindDirDegrees,DateUTC
12:12 AM,42.8,42.8,100,29.51,4.0,North,25.3,38.0,N/A,,Light Drizzle,350,2012-10-19 05:12:00
12:33 AM,42.8,42.8,100,29.51,4.0,North,24.2,34.5,N/A,Rain,Light Rain,350,2012-10-19 05:33:00
12:53 AM,42.8,42.8,100,29.53,4.0,North,23.0,34.5,N/A,,Light Drizzle,350,2012-10-19 05:53:00
1:12 AM,42.8,41.0,93,29.53,3.0,North,24.2,36.8,N/A,Rain,Light Rain,350,2012-10-19 06:12:00
1:33 AM,42.8,41.0,93,29.55,3.0,North,18.4,33.4,N/A,,Light Drizzle,360,2012-10-19 06:33:00
1:53 AM,41.0,41.0,100,29.55,3.0,North,20.7,31.1,N/A,,Light Drizzle,360,2012-10-19 06:53:00
2:12 AM,41.0,41.0,100,29.56,3.0,North,20.7,35.7,N/A,,Light Drizzle,350,2012-10-19 07:12:00
2:33 AM,41.0,41.0,100,29.57,3.0,North,23.0,33.4,N/A,,Overcast,350,2012-10-19 07:33:00
2:53 AM,41.0,41.0,100,29.58,3.0,North,20.7,34.5,N/A,,Overcast,350,2012-10-19 07:53:00
3:12 AM,41.0,41.0,100,29.59,3.0,North,23.0,29.9,N/A,,Overcast,350,2012-10-19 08:12:00
3:33 AM,41.0,41.0,100,29.59,3.0,NNW,23.0,32.2,N/A,,Overcast,340,2012-10-19 08:33:00
3:53 AM,41.0,41.0,100,29.59,4.0,North,23.0,32.2,N/A,,Overcast,350,2012-10-19 08:53:00
4:12 AM,41.0,41.0,100,29.60,4.0,NNW,19.6,28.8,N/A,,Overcast,340,2012-10-19 09:12:00
4:33 AM,41.0,41.0,100,29.61,4.0,North,19.6,26.5,N/A,,Overcast,350,2012-10-19 09:33:00
4:53 AM,41.0,41.0,100,29.61,5.0,North,24.2,31.1,N/A,,Overcast,350,2012-10-19 09:53:00
5:12 AM,41.0,41.0,100,29.62,1.8,NNW,20.7,-,N/A,,Overcast,340,2012-10-19 10:12:00
5:33 AM,41.0,41.0,100,29.62,2.5,NNW,20.7,31.1,N/A,,Overcast,340,2012-10-19 10:33:00
5:53 AM,39.2,39.2,100,29.63,2.5,NNW,21.9,31.1,N/A,,Overcast,340,2012-10-19 10:53:00
6:12 AM,41.0,41.0,100,29.64,7.0,NNW,18.4,25.3,N/A,,Overcast,340,2012-10-19 11:12:00
6:33 AM,39.2,39.2,100,29.65,5.0,NNW,20.7,31.1,N/A,,Overcast,340,2012-10-19 11:33:00
6:53 AM,39.2,39.2,100,29.65,5.0,North,16.1,24.2,N/A,,Overcast,350,2012-10-19 11:53:00
7:12 AM,39.2,39.2,100,29.66,3.0,NNW,16.1,23.0,N/A,,Light Drizzle,340,2012-10-19 12:12:00
7:33 AM,39.2,39.2,100,29.66,3.0,NNW,19.6,24.2,N/A,,Light Drizzle,340,2012-10-19 12:33:00
7:53 AM,39.2,39.2,100,29.66,4.0,NNW,16.1,21.9,N/A,,Overcast,340,2012-10-19 12:53:00
8:12 AM,39.2,39.2,100,29.67,4.0,NNW,17.3,23.0,N/A,Rain,Light Rain,340,2012-10-19 13:12:00
8:33 AM,39.2,39.2,100,29.68,3.0,NNW,13.8,25.3,N/A,,Light Drizzle,340,2012-10-19 13:33:00
8:53 AM,39.2,39.2,100,29.68,4.0,NNW,13.8,21.9,N/A,Rain,Light Rain,340,2012-10-19 13:53:00
9:12 AM,39.2,39.2,100,29.69,3.0,NNW,18.4,25.3,N/A,,Drizzle,340,2012-10-19 14:12:00
9:33 AM,39.2,39.2,100,29.69,4.0,NNW,15.0,23.0,0.02,Rain,Heavy Rain,340,2012-10-19 14:33:00
9:53 AM,39.2,39.2,100,29.69,5.0,NNW,18.4,25.3,0.03,Rain,Light Rain,340,2012-10-19 14:53:00
10:13 AM,41.0,39.2,93,29.70,5.0,North,16.1,20.7,0.01,Rain,Rain,350,2012-10-19 15:13:00
10:32 AM,41.0,39.2,93,29.70,7.0,North,13.8,19.6,0.02,,Drizzle,350,2012-10-19 15:32:00
10:53 AM,41.0,39.2,93,29.70,10.0,NNW,13.8,23.0,0.02,,Drizzle,330,2012-10-19 15:53:00
11:12 AM,41.0,39.2,93,29.71,7.0,NNW,17.3,-,0.01,Rain,Light Rain,340,2012-10-19 16:12:00
11:33 AM,41.0,39.2,93,29.71,7.0,NNW,13.8,20.7,0.03,Rain,Light Rain,340,2012-10-19 16:33:00
11:53 AM,41.0,39.2,93,29.71,7.0,NNW,15.0,20.7,0.05,Rain,Light Rain,340,2012-10-19 16:53:00
12:13 PM,41.0,41.0,100,29.71,7.0,NNW,13.8,-,0.02,Rain,Light Rain,340,2012-10-19 17:13:00
12:33 PM,41.0,41.0,100,29.72,10.0,NNW,12.7,18.4,0.03,Rain,Light Rain,340,2012-10-19 17:33:00
12:53 PM,41.0,41.0,100,29.72,10.0,North,12.7,18.4,0.04,Rain,Light Rain,350,2012-10-19 17:53:00
1:13 PM,41.0,41.0,100,29.71,10.0,North,15.0,20.7,N/A,Rain,Rain,350,2012-10-19 18:13:00
1:33 PM,41.0,41.0,100,29.71,10.0,North,12.7,18.4,N/A,Rain,Rain,350,2012-10-19 18:33:00
1:53 PM,41.0,41.0,100,29.71,7.0,North,12.7,16.1,N/A,Rain,Rain,350,2012-10-19 18:53:00
2:12 PM,41.0,41.0,100,29.71,10.0,North,10.4,17.3,N/A,,Light Drizzle,350,2012-10-19 19:12:00
2:33 PM,41.0,41.0,100,29.71,10.0,North,6.9,-,N/A,,Light Drizzle,360,2012-10-19 19:33:00
2:53 PM,41.0,41.0,100,29.71,10.0,North,11.5,-,N/A,,Light Drizzle,350,2012-10-19 19:53:00
3:12 PM,41.0,41.0,100,29.71,10.0,North,6.9,-,N/A,,Overcast,360,2012-10-19 20:12:00
3:33 PM,41.0,41.0,100,29.70,10.0,NNW,10.4,-,N/A,,Light Drizzle,340,2012-10-19 20:33:00
3:53 PM,42.8,41.0,93,29.71,10.0,NNW,9.2,-,N/A,Rain,Light Rain,330,2012-10-19 20:53:00
4:13 PM,41.0,41.0,100,29.71,10.0,North,10.4,-,N/A,,Overcast,350,2012-10-19 21:13:00
4:33 PM,42.8,41.0,93,29.71,10.0,NNW,8.1,-,N/A,,Overcast,330,2012-10-19 21:33:00
4:53 PM,42.8,41.0,93,29.72,10.0,NNW,9.2,-,N/A,,Overcast,330,2012-10-19 21:53:00
5:13 PM,42.8,41.0,93,29.71,10.0,North,6.9,-,N/A,,Overcast,350,2012-10-19 22:13:00
5:33 PM,42.8,41.0,93,29.73,10.0,NW,8.1,-,N/A,,Overcast,320,2012-10-19 22:33:00
5:53 PM,42.8,41.0,93,29.73,10.0,NNW,8.1,-,N/A,,Overcast,330,2012-10-19 22:53:00
6:13 PM,41.0,41.0,100,29.74,10.0,NW,9.2,-,N/A,,Overcast,320,2012-10-19 23:13:00
6:33 PM,41.0,41.0,100,29.74,7.0,NNW,9.2,-,N/A,,Overcast,340,2012-10-19 23:33:00
6:53 PM,41.0,41.0,100,29.74,10.0,NW,6.9,-,N/A,,Overcast,320,2012-10-19 23:53:00
7:13 PM,41.0,41.0,100,29.74,3.0,NW,8.1,-,N/A,,Overcast,320,2012-10-20 00:13:00
7:33 PM,41.0,41.0,100,29.75,2.0,NNW,6.9,-,N/A,,Overcast,330,2012-10-20 00:33:00
7:53 PM,41.0,41.0,100,29.74,5.0,NNW,6.9,-,N/A,,Overcast,340,2012-10-20 00:53:00
8:12 PM,41.0,41.0,100,29.74,4.0,North,3.5,-,N/A,,Overcast,360,2012-10-20 01:12:00
8:33 PM,41.0,41.0,100,29.75,3.0,NNW,4.6,-,N/A,,Overcast,330,2012-10-20 01:33:00
8:53 PM,41.0,41.0,100,29.74,10.0,NW,4.6,-,N/A,,Overcast,320,2012-10-20 01:53:00
9:12 PM,41.0,41.0,100,29.74,10.0,NNW,4.6,-,N/A,,Overcast,330,2012-10-20 02:12:00
9:33 PM,41.0,41.0,100,29.74,1.0,NNW,3.5,-,N/A,,Overcast,330,2012-10-20 02:33:00
9:53 PM,41.0,41.0,100,29.74,1.2,Calm,Calm,-,N/A,,Overcast,0,2012-10-20 02:53:00
10:12 PM,41.0,41.0,100,29.74,2.5,Calm,Calm,-,N/A,,Overcast,0,2012-10-20 03:12:00
10:33 PM,41.0,41.0,100,29.74,1.5,NW,3.5,-,N/A,,Overcast,310,2012-10-20 03:33:00
10:53 PM,41.0,41.0,100,29.75,4.0,Calm,Calm,-,N/A,,Overcast,0,2012-10-20 03:53:00
11:12 PM,41.0,41.0,100,29.75,10.0,Calm,Calm,-,N/A,,Overcast,0,2012-10-20 04:12:00
11:33 PM,41.0,41.0,100,29.74,10.0,Calm,Calm,-,N/A,,Overcast,0,2012-10-20 04:33:00
11:52 PM,41.0,41.0,100,29.74,0.5,Calm,Calm,-,N/A,Fog,Fog,0,2012-10-20 04:52:00